Location: Jaite
(41.2884°N, 81.5737°W)
Time: 12:25:46
(UTC+00:00)

IRS-1A Rocket - Pass Details

Date: 18 January 2020
Orbit: 851 x 931 km, 99.2° (Epoch: 20 February)

Event Time Altitude Azimuth Distance (km) Brightness Sun altitude
Rises 00:46:29 0° 165° (SSE) 3,553 7.3 -26.4°
Reaches altitude 10° 00:48:54 10° 166° (SSE) 2,607 6.6 -26.9°
Maximum altitude 00:54:45 86° 255° (WSW) 916 4.3 -27.9°
Drops below altitude 10° 01:00:30 10° 345° (NNW) 2,574 6.8 -29.0°
Sets 01:02:54 0° 346° (NNW) 3,506 7.6 -29.5°
